Marysville, OH

11:19 AM EDT on October 18, 2017 (GMT -0400)
Marysville

Weather History for KMRT - February, 2014

Change the Weather History Date:

Friday, February 28, 2014

  Actual Average (KDLZ) Record (KDLZ)
Temperature  
Mean Temperature 15 °F -  
Max Temperature 29 °F 40 °F 65 °F (1939)
Min Temperature 1 °F 21 °F -7 °F (2015)
Degree Days  
Heating Degree Days 50    
Moisture  
Dew Point 0 °F    
Average Humidity 53    
Maximum Humidity 79    
Minimum Humidity 30    
Precipitation  
Precipitation 0.00 in - - ()
Sea Level Pressure  
Sea Level Pressure 30.18 in    
Wind  
Wind Speed 3 mph (SSE)    
Max Wind Speed 12 mph    
Max Gust Speed 16 mph    
Visibility 10 miles    
Events      
Averages and records for this station are not official NWS values.
T = Trace of Precipitation, MM = Missing Value Source: NWS Daily Summary

Daily Weather History Graph

Daily Weather History Graph

Search for Another Location

Airport or City:

Trip Planner

Search our weather history database for the weather conditions in past years. The results will help you decide how hot, cold, wet, or windy it might be!

Date:

Astronomy

Feb. 28, 2014 Rise Set
Actual Time 7:08 AM EST 6:23 PM EST
Civil Twilight 6:41 AM EST 6:51 PM EST
Nautical Twilight 6:09 AM EST 7:22 PM EST
Astronomical Twilight 5:38 AM EST 7:54 PM EST
Moon 6:22 AM EST (2/28) 5:59 PM EST (2/28)
Length of Visible Light 12h 10m
Length of Day
11h 15m
Waning Crescent, 1% of the Moon is Illuminated
Feb 28
Waning Crescent
Mar 1
New
Mar 8
First Quarter
Mar 16
Full
Mar 23
Last Quarter

Hourly Weather History & Observations

Time (EST) Temp. Windchill Dew Point Humidity Pressure Visibility Wind Dir Wind Speed Gust Speed Precip Events Conditions
12:14 AM 6.3 °F -0.7 °F -3.1 °F 65% 30.16 in 10.0 mi NE 3.5 mph - N/A   Clear
12:34 AM 5.9 °F - -3.3 °F 66% 30.16 in 10.0 mi Calm Calm - N/A   Clear
12:54 AM 5.0 °F - -2.7 °F 70% 30.16 in 10.0 mi Calm Calm - N/A   Clear
1:14 AM 4.5 °F -2.7 °F -2.6 °F 73% 30.17 in 10.0 mi NE 3.5 mph - N/A   Clear
1:34 AM 5.5 °F - -3.1 °F 68% 30.18 in 10.0 mi Calm Calm - N/A   Clear
1:54 AM 5.7 °F -1.3 °F -3.5 °F 66% 30.18 in 10.0 mi NE 3.5 mph - N/A   Clear
2:14 AM 5.5 °F -1.5 °F -3.8 °F 65% 30.19 in 10.0 mi NE 3.5 mph - N/A   Clear
2:34 AM 4.5 °F - -3.3 °F 70% 30.19 in 10.0 mi Calm Calm - N/A   Clear
2:54 AM 3.6 °F - -3.1 °F 74% 30.18 in 10.0 mi Calm Calm - N/A   Clear
3:14 AM 3.2 °F - -3.5 °F 74% 30.18 in 10.0 mi Calm Calm - N/A   Clear
3:34 AM 3.2 °F - -2.6 °F 77% 30.18 in 10.0 mi Calm Calm - N/A   Clear
3:54 AM 2.5 °F - -3.1 °F 78% 30.19 in 10.0 mi Calm Calm - N/A   Clear
4:14 AM 2.8 °F - -2.2 °F 79% 30.20 in 10.0 mi Calm Calm - N/A   Clear
4:34 AM 1.6 °F - -3.6 °F 79% 30.21 in 10.0 mi Calm Calm - N/A   Clear
4:54 AM 1.9 °F - -3.3 °F 79% 30.21 in 10.0 mi Calm Calm - N/A   Clear
5:14 AM 2.3 °F - -3.1 °F 78% 30.22 in 10.0 mi Calm Calm - N/A   Clear
5:34 AM 2.1 °F - -3.3 °F 78% 30.23 in 10.0 mi Calm Calm - N/A   Clear
5:54 AM 2.1 °F - -2.9 °F 79% 30.23 in 10.0 mi Calm Calm - N/A   Clear
6:14 AM 2.3 °F - -3.3 °F 77% 30.22 in 10.0 mi Calm Calm - N/A   Clear
6:34 AM 1.9 °F - -3.5 °F 78% 30.23 in 10.0 mi Calm Calm - N/A   Clear
6:54 AM 1.2 °F - -4.0 °F 79% 30.23 in 10.0 mi Calm Calm - N/A   Clear
7:14 AM 2.1 °F - -3.6 °F 77% 30.24 in 10.0 mi Calm Calm - N/A   Clear
7:34 AM 2.3 °F - -3.3 °F 77% 30.25 in 10.0 mi Calm Calm - N/A   Clear
7:54 AM 4.6 °F - -1.3 °F 76% 30.25 in 10.0 mi Calm Calm - N/A   Clear
8:14 AM 8.1 °F 1.4 °F -1.8 °F 64% 30.26 in 10.0 mi ESE 3.5 mph - N/A   Clear
8:34 AM 8.6 °F -1.3 °F -3.1 °F 59% 30.27 in 10.0 mi SSE 5.8 mph - N/A   Clear
8:54 AM 10.0 °F -1.9 °F -3.6 °F 54% 30.27 in 10.0 mi SE 8.1 mph - N/A   Clear
9:14 AM 11.5 °F -1.1 °F -3.3 °F 52% 30.27 in 10.0 mi SE 9.2 mph - N/A   Clear
9:34 AM 12.6 °F 0.2 °F -2.6 °F 51% 30.27 in 10.0 mi South 9.2 mph - N/A   Clear
9:54 AM 13.6 °F 1.6 °F -2.4 °F 49% 30.26 in 10.0 mi SSE 9.2 mph - N/A   Clear
10:14 AM 14.9 °F 3.1 °F -2.4 °F 46% 30.25 in 10.0 mi SE 9.2 mph - N/A   Clear
10:34 AM 15.8 °F 2.7 °F -3.1 °F 43% 30.25 in 10.0 mi South 11.5 mph - N/A   Clear
10:54 AM 16.2 °F 6.5 °F -4.4 °F 40% 30.26 in 10.0 mi South 6.9 mph - N/A   Clear
11:14 AM 17.4 °F 7.1 °F -3.8 °F 39% 30.26 in 10.0 mi South 8.1 mph - N/A   Clear
11:34 AM 18.7 °F 8.6 °F -4.0 °F 37% 30.26 in 10.0 mi South 8.1 mph - N/A   Clear
11:54 AM 19.9 °F 11.1 °F -2.9 °F 37% 30.26 in 10.0 mi South 6.9 mph - N/A   Clear
12:14 PM 20.7 °F 11.0 °F -2.0 °F 37% 30.25 in 10.0 mi South 8.1 mph - N/A   Clear
12:34 PM 21.0 °F 9.9 °F -2.6 °F 36% 30.24 in 10.0 mi SSW 10.4 mph - N/A   Clear
12:54 PM 21.9 °F 12.5 °F -2.7 °F 34% 30.23 in 10.0 mi South 8.1 mph - N/A   Clear
1:14 PM 23.5 °F 17.6 °F -1.5 °F 34% 30.22 in 10.0 mi SSE 4.6 mph - N/A   Clear
1:34 PM 24.4 °F 18.6 °F -1.7 °F 32% 30.20 in 10.0 mi SSE 4.6 mph - N/A   Clear
1:54 PM 25.3 °F 17.6 °F -0.4 °F 33% 30.20 in 10.0 mi SSE 6.9 mph - N/A   Clear
2:14 PM 25.7 °F 20.1 °F -1.3 °F 31% 30.18 in 10.0 mi South 4.6 mph - N/A   Clear
2:34 PM 27.0 °F 18.7 °F 0.5 °F 32% 30.18 in 10.0 mi South 8.1 mph - N/A   Clear
2:54 PM 27.0 °F 18.0 °F -0.4 °F 31% 30.17 in 10.0 mi South 9.2 mph - N/A   Clear
3:15 PM 27.9 °F 21.5 °F 0.3 °F 31% 30.17 in 10.0 mi South 5.8 mph - N/A   Clear
3:33 PM 28.0 °F 20.8 °F -0.2 °F 30% 30.17 in 10.0 mi SSE 6.9 mph 16.1 mph N/A   Clear
3:54 PM 28.8 °F 20.2 °F 1.6 °F 31% 30.17 in 10.0 mi South 9.2 mph - N/A   Clear
4:14 PM 29.1 °F 20.0 °F 0.7 °F 30% 30.16 in 10.0 mi South 10.4 mph - N/A   Clear
4:34 PM 29.3 °F 20.8 °F 2.5 °F 32% 30.15 in 10.0 mi South 9.2 mph - N/A   Clear
4:54 PM 29.7 °F 21.3 °F 1.9 °F 31% 30.14 in 10.0 mi South 9.2 mph - N/A   Clear
5:14 PM 29.5 °F 24.5 °F 1.2 °F 30% 30.13 in 10.0 mi SSE 4.6 mph - N/A   Clear
5:34 PM 29.5 °F 24.5 °F 3.0 °F 32% 30.13 in 10.0 mi SSE 4.6 mph - N/A   Clear
5:54 PM 29.1 °F 24.1 °F 2.1 °F 32% 30.13 in 10.0 mi SSE 4.6 mph - N/A   Clear
6:14 PM 28.4 °F 24.6 °F 2.5 °F 33% 30.12 in 10.0 mi South 3.5 mph - N/A   Clear
6:34 PM 27.3 °F 23.4 °F 6.3 °F 41% 30.11 in 10.0 mi South 3.5 mph - N/A   Clear
6:54 PM 27.1 °F - 5.0 °F 39% 30.11 in 10.0 mi Calm Calm - N/A   Clear
7:14 PM 26.6 °F - 5.4 °F 40% 30.10 in 10.0 mi Calm Calm - N/A   Clear
7:34 PM 25.2 °F - 8.1 °F 48% 30.10 in 10.0 mi Calm Calm - N/A   Clear
7:55 PM 23.5 °F - 11.8 °F 61% 30.10 in 10.0 mi Calm Calm - N/A   Clear
8:14 PM 24.8 °F - 7.3 °F 48% 30.10 in 10.0 mi Calm Calm - N/A   Clear
8:34 PM 23.2 °F - 10.6 °F 59% 30.10 in 10.0 mi Calm Calm - N/A   Clear
8:55 PM 22.8 °F - 10.8 °F 60% 30.10 in 10.0 mi Calm Calm - N/A   Clear
9:14 PM 24.1 °F - 8.1 °F 51% 30.10 in 10.0 mi Calm Calm - N/A   Clear
9:34 PM 25.2 °F - 5.7 °F 44% 30.10 in 10.0 mi Calm Calm - N/A   Clear
9:54 PM 25.2 °F - 4.5 °F 41% 30.10 in 10.0 mi Calm Calm - N/A   Clear
10:14 PM 23.5 °F - 7.3 °F 50% 30.11 in 10.0 mi Calm Calm - N/A   Clear
10:34 PM 24.1 °F - 5.5 °F 45% 30.11 in 10.0 mi Calm Calm - N/A   Clear
10:54 PM 22.6 °F 18.0 °F 9.9 °F 58% 30.11 in 10.0 mi South 3.5 mph - N/A   Clear
11:14 PM 24.6 °F - 6.8 °F 47% 30.11 in 10.0 mi Calm Calm - N/A   Clear
11:34 PM 24.4 °F - 5.9 °F 45% 30.10 in 10.0 mi Calm Calm - N/A   Clear
11:54 PM 23.7 °F - 6.8 °F 49% 30.10 in 10.0 mi Calm Calm - N/A   Clear